[[[{"header":{"parameterUnit":"kt","parameterCategory":2,"dx":1,"dy":1,"la1":30.253999710083008,"la2":30.299108505249023,"lo1":-89.0895004272461,"lo2":-89.04439544677734,"nx":28,"ny":28,"refTime":"2022-10-03T21:00:00:Z","depth":"0","parameterNumber":2,"parameterNumberName":"U-component_of_CURRENTS"},"data":[0.5399,0.5253,0.5195,0.4798,0.4642,0.4249,0.4077,0.3862,0.3781,0.3545,0.3458,0.3476,0.317,0.2396,0.1751,0.1686,0.151,0.135,0.1525,0.1987,0.2103,0.2213,0.2022,0.1109,0.1108,0.0562,0.0556,0.0551,0.5518,0.5469,0.5391,0.5165,0.4953,0.4939,0.4689,0.4469,0.4214,0.4192,0.4051,0.3908,0.3696,0.3591,0.3239,0.2908,0.2898,0.2705,0.2483,0.2546,0.3389,0.3219,0.2546,0.2546,0.2547,0.2547,0.2547,0.2548,0.5706,0.5662,0.5583,0.5443,0.5327,0.5111,0.4929,0.4805,0.4625,0.4388,0.4476,0.4364,0.4304,0.4499,0.4477,0.4104,0.4427,0.3977,0.395,0.393,0.3727,0.4612,0.4369,0.4374,0.4378,0.4381,0.4384,0,0.5756,0.5738,0.5708,0.5587,0.5482,0.534,0.519,0.5108,0.4975,0.4884,0.4736,0.4706,0.4793,0.4792,0.4984,0.5079,0.4947,0.5208,0.4885,0.427,0.4029,0.3915,0.5016,0.4935,0.4943,0.4949,0.4953,0.4956,0.5748,0.5761,0.5694,0.5635,0.5586,0.5508,0.5412,0.5335,0.5228,0.5118,0.5045,0.507,0.5042,0.5253,0.543,0.5623,0.553,0.5393,0.5422,0.498,0.484,0.4751,0.4698,0.5043,0.5032,0.5023,0.5016,0,0.5724,0.5699,0.569,0.5634,0.5601,0.5573,0.5419,0.5368,0.5333,0.523,0.5215,0.5255,0.5332,0.5531,0.5787,0.5874,0.5778,0.6049,0.5628,0.5515,0.5036,0.4951,0.4701,0.4615,0.5914,0.5909,0.5904,0,0.5634,0.5647,0.5569,0.558,0.5562,0.5516,0.5481,0.5474,0.5427,0.5358,0.544,0.5413,0.5648,0.574,0.5936,0.6012,0.6129,0.6127,0.606,0.5757,0.5704,0.536,0.5253,0.6405,0.6405,0.6405,0.6405,0,0.5505,0.5511,0.5528,0.5522,0.5467,0.5476,0.5444,0.5453,0.542,0.5463,0.5404,0.5615,0.5625,0.5833,0.5964,0.5978,0.6171,0.6165,0.6063,0.6041,0.5735,0.5677,0.5429,0.6405,0.6405,0.6405,0.6405,0,0.5382,0.5353,0.5431,0.5336,0.5334,0.538,0.5348,0.54,0.5444,0.5425,0.5528,0.5539,0.5751,0.5756,0.6014,0.5941,0.6036,0.6102,0.61,0.5869,0.57,0.5283,0.542,0.5048,0.5967,0.5965,0.5963,0,0.5216,0.5262,0.5164,0.5242,0.525,0.5167,0.5237,0.5271,0.5259,0.529,0.5421,0.551,0.5608,0.5629,0.5789,0.587,0.5992,0.5924,0.5894,0.5893,0.5577,0.58,0.5446,0.5405,0.5932,0.5935,0.5937,0,0.5045,0.4928,0.4932,0.4906,0.4872,0.4882,0.4992,0.5034,0.5053,0.5147,0.5202,0.5525,0.5488,0.5595,0.5659,0.5774,0.5925,0.5721,0.5722,0.5613,0.6014,0.578,0.5777,0.5901,0.5906,0.5911,0.5913,0,0.4845,0.4778,0.4801,0.4752,0.476,0.4801,0.4779,0.4815,0.4783,0.4794,0.4981,0.5081,0.5216,0.5336,0.5375,0.5633,0.555,0.5518,0.5345,0.5577,0.5547,0.5568,0.5295,0.5293,0.529,0.5289,0,0,0.4694,0.4591,0.4444,0.448,0.4476,0.4384,0.4461,0.449,0.4521,0.4545,0.4495,0.478,0.4862,0.5113,0.524,0.5277,0.5259,0.5207,0.5495,0.5518,0.5539,0.552,0.5542,0.5285,0.5284,0.5284,0.5283,0,0.4581,0.4391,0.44,0.439,0.4359,0.433,0.4344,0.4326,0.4328,0.4437,0.4451,0.4587,0.4731,0.4844,0.4926,0.5216,0.5118,0.529,0.5401,0.5473,0.5498,0.5521,0.5508,0.5529,0.5278,0.5278,0.5278,0,0.4452,0.4327,0.4291,0.4176,0.4166,0.4222,0.4112,0.4148,0.4214,0.4136,0.424,0.4312,0.4427,0.4611,0.4696,0.4615,0.494,0.487,0.4888,0.4906,0.4973,0.5006,0.5036,0.4632,0.4629,0.4626,0,0,0.4391,0.4296,0.4203,0.4153,0.4145,0.4112,0.4128,0.41,0.4115,0.4124,0.413,0.4208,0.435,0.4385,0.4499,0.4648,0.4627,0.4784,0.4815,0.4839,0.487,0.4945,0.4979,0.4615,0.4615,0.4615,0,0,0.4395,0.4217,0.4143,0.4052,0.4056,0.403,0.407,0.4036,0.4078,0.407,0.4041,0.4048,0.4224,0.4238,0.4093,0.446,0.435,0.4378,0.4391,0.443,0.446,0.446,0.3994,0,0,0,0,0,0.427,0.4233,0.4165,0.4137,0.4014,0.4047,0.4052,0.4011,0.396,0.4,0.4013,0.3957,0.4192,0.406,0.4076,0.4215,0.4474,0.4499,0.4523,0.4583,0.4623,0.4658,0,0,0,0,0,0,0.4258,0.4215,0.417,0.4117,0.4093,0.4044,0.3949,0.3941,0.3954,0.3944,0.3959,0.3958,0.3938,0.405,0.4064,0.4199,0.3989,0.4484,0.4505,0.4524,0.4597,0.463,0.4659,0,0,0,0,0,0.4249,0.4215,0.3984,0.4124,0.4103,0.4057,0.3945,0.3938,0.395,0.3942,0.3938,0.3917,0.394,0.3951,0.4058,0.4194,0.3978,0.3984,0.4498,0.4515,0.453,0.4613,0,0,0,0,0,0,0.4243,0.4249,0.3984,0.3984,0.4087,0.4063,0.4038,0.3935,0.3947,0.3943,0.3898,0.389,0.3943,0.3951,0.396,0.4197,0.397,0.3976,0.3979,0.4511,0.4524,0.4535,0,0,0,0,0,0,0.4269,0.4247,0.3984,0.3938,0.3932,0.4068,0.4046,0.4116,0.3949,0.3903,0.3896,0.3895,0.3937,0.3952,0.3958,0.4073,0.3963,0.3969,0.3973,0.3975,0.4521,0.4532,0,0,0,0,0,0,0.4263,0.4245,0.3938,0.3934,0.3929,0.393,0.4137,0.4015,0.389,0.3905,0.3879,0.3874,0.394,0.3945,0.3958,0.407,0.4072,0.3964,0.3967,0.397,0.3972,0,0,0,0,0,0,0,0.4259,0.4341,0.398,0.393,0.3926,0.3985,0.3986,0.3986,0.3889,0.3885,0.3881,0.3877,0.3932,0.3938,0.3944,0.4067,0,0,0.3963,0.3966,0,0,0,0,0,0,0,0,0.4353,0.4344,0.398,0.398,0.398,0.3985,0.3986,0.3986,0.3888,0.3885,0.3881,0.3878,0.3934,0.3938,0.3943,0,0,0,0,0,0,0,0,0,0,0,0,0,0,0,0.398,0.398,0,0.3985,0.3986,0.3986,0.3888,0.3885,0.3882,0.3879,0.3935,0.3939,0.3943,0,0,0,0,0,0,0,0,0,0,0,0,0,0,0,0,0,0,0,0,0,0,0,0,0,0,0,0,0,0,0,0,0,0,0,0,0,0,0,0,0,0,0,0,0,0,0,0,0,0,0,0,0,0,0,0,0,0,0,0,0,0,0,0,0,0,0,0,0]}],[{"header":{"parameterUnit":"kt","parameterCategory":2,"dx":1,"dy":1,"la1":30.253999710083008,"la2":30.299108505249023,"lo1":-89.0895004272461,"lo2":-89.04439544677734,"nx":28,"ny":28,"refTime":"2022-10-03T21:00:00:Z","depth":"0","parameterNumber":3,"parameterNumberName":"V-component_of_CURRENTS"},"data":[0.148,0.1573,0.1658,0.1884,0.2028,0.2177,0.2275,0.2303,0.2375,0.2353,0.2378,0.2426,0.2504,0.2241,0.1992,0.1914,0.1956,0.1836,0.1887,0.2035,0.2071,0.2106,0.2129,0.1761,0.1761,0.1865,0.1865,0.1865,0.1491,0.1574,0.1732,0.1925,0.21,0.2225,0.2474,0.2536,0.2632,0.2752,0.2761,0.2787,0.2657,0.2546,0.2297,0.2087,0.2137,0.1994,0.2135,0.2202,0.2313,0.2335,0.2005,0.2005,0.2005,0.2005,0.2005,0.2005,0.1509,0.1584,0.171,0.1885,0.2073,0.2287,0.2416,0.2621,0.2836,0.2989,0.3087,0.3098,0.3073,0.2804,0.2617,0.237,0.2485,0.232,0.2327,0.2374,0.2419,0.2449,0.2229,0.2229,0.223,0.223,0.223,0,0.1503,0.1562,0.1692,0.1862,0.2029,0.2265,0.2512,0.2654,0.2997,0.3152,0.3287,0.3342,0.3263,0.3138,0.2903,0.2763,0.2813,0.2721,0.2696,0.2728,0.2671,0.2642,0.2841,0.2775,0.2778,0.2781,0.2783,0.2784,0.1473,0.1537,0.1762,0.1856,0.1965,0.2204,0.2399,0.2718,0.2934,0.327,0.3383,0.3468,0.3548,0.3365,0.3252,0.3034,0.3051,0.2819,0.2898,0.2771,0.2698,0.2728,0.2761,0.2822,0.2817,0.2813,0.281,0,0.1462,0.1549,0.171,0.1954,0.2034,0.2197,0.2527,0.2768,0.303,0.3324,0.3404,0.3697,0.3662,0.3673,0.3599,0.3498,0.3299,0.3238,0.3155,0.3065,0.2771,0.2761,0.2686,0.2709,0.2914,0.2908,0.2904,0,0.1487,0.1588,0.1756,0.1834,0.205,0.2226,0.2524,0.2754,0.3089,0.3337,0.3573,0.3749,0.385,0.384,0.3737,0.3532,0.3653,0.339,0.3301,0.3302,0.3277,0.3193,0.3176,0.3634,0.3636,0.3637,0.3639,0,0.1446,0.1647,0.1763,0.1829,0.2096,0.2227,0.2394,0.2754,0.2959,0.3321,0.3457,0.3759,0.3837,0.3824,0.3714,0.3719,0.3642,0.3631,0.335,0.3326,0.3267,0.3234,0.3279,0.3641,0.3642,0.3642,0.3643,0,0.1473,0.1577,0.1736,0.1945,0.2006,0.2144,0.2465,0.2658,0.3029,0.3168,0.3453,0.3584,0.3799,0.3708,0.3771,0.3756,0.3639,0.3574,0.3563,0.3355,0.319,0.2891,0.305,0.3003,0.3308,0.3308,0.3307,0,0.1371,0.1545,0.1626,0.1813,0.1903,0.2026,0.2233,0.2455,0.2633,0.2886,0.3102,0.3361,0.3371,0.3485,0.3562,0.3559,0.3561,0.3581,0.3373,0.3365,0.308,0.3276,0.3259,0.3051,0.33,0.3301,0.3301,0,0.128,0.145,0.1467,0.1525,0.1683,0.1801,0.2008,0.2232,0.2403,0.2579,0.2806,0.3159,0.3225,0.3364,0.3459,0.3499,0.3527,0.3371,0.3369,0.3158,0.3472,0.3279,0.3264,0.3514,0.3518,0.3522,0.3295,0,0.121,0.1285,0.1372,0.149,0.1601,0.172,0.1833,0.1976,0.2025,0.2133,0.2474,0.2644,0.2906,0.3009,0.3036,0.3308,0.3174,0.3167,0.2985,0.3218,0.3086,0.3092,0.2984,0.2981,0.2979,0.2977,0,0,0.1029,0.1134,0.1202,0.1307,0.1372,0.1415,0.1521,0.1635,0.1795,0.1906,0.1842,0.2307,0.2415,0.2779,0.2885,0.2959,0.2882,0.288,0.3146,0.3165,0.3182,0.3067,0.3074,0.2972,0.2972,0.2971,0.297,0,0.0992,0.1036,0.1134,0.1216,0.1317,0.137,0.1404,0.1509,0.1563,0.1765,0.1806,0.2021,0.2273,0.2433,0.2544,0.2893,0.2741,0.2965,0.3085,0.3123,0.3145,0.3165,0.3055,0.3064,0.2964,0.2964,0.2965,0,0.0859,0.0909,0.0957,0.108,0.1144,0.1254,0.1188,0.1316,0.141,0.1401,0.1584,0.1716,0.1888,0.2158,0.2279,0.2199,0.2556,0.2526,0.2546,0.255,0.258,0.261,0.2637,0.2264,0.2261,0.2259,0,0,0.0814,0.0901,0.0964,0.1066,0.111,0.1159,0.1224,0.1233,0.1337,0.138,0.1455,0.159,0.1787,0.1873,0.2047,0.229,0.2225,0.2434,0.2467,0.2494,0.2512,0.2551,0.2583,0.2247,0.2247,0.2247,0,0,0.0795,0.0863,0.083,0.0945,0.1036,0.1125,0.1215,0.1201,0.1329,0.1315,0.1346,0.1376,0.1634,0.1685,0.1529,0.1993,0.1869,0.1904,0.1915,0.1957,0.199,0.1958,0.1429,0,0,0,0,0,0.0755,0.0856,0.0825,0.0846,0.0976,0.1134,0.116,0.1172,0.1102,0.1188,0.1263,0.1213,0.1636,0.1496,0.1536,0.1689,0.2099,0.2126,0.215,0.2228,0.2272,0.2309,0,0,0,0,0,0,0.0763,0.0787,0.0824,0.0905,0.0935,0.1129,0.1019,0.1028,0.1094,0.1086,0.1203,0.1217,0.1243,0.1474,0.1511,0.1657,0.1416,0.211,0.2132,0.2152,0.2243,0.2279,0.231,0,0,0,0,0,0.077,0.0789,0.0976,0.0906,0.0932,0.0979,0.1014,0.102,0.1077,0.1155,0.1168,0.1079,0.1245,0.1278,0.1496,0.1641,0.1391,0.1405,0.2124,0.2142,0.2157,0.2261,0,0,0,0,0,0,0.0775,0.0819,0.0984,0.0995,0.0845,0.097,0.0984,0.1014,0.1144,0.1156,0.1031,0.1024,0.1249,0.1273,0.1299,0.1636,0.137,0.1384,0.1393,0.2138,0.2151,0.2163,0,0,0,0,0,0,0.0809,0.0827,0.099,0.0912,0.0915,0.0963,0.0974,0.1136,0.1147,0.1015,0.1011,0.1026,0.1212,0.1271,0.1291,0.1545,0.1354,0.1367,0.1377,0.1383,0.2149,0.216,0,0,0,0,0,0,0.0818,0.0835,0.091,0.0912,0.0914,0.1046,0.111,0.1245,0.1063,0.1011,0.1048,0.1041,0.1211,0.1231,0.1286,0.1531,0.1541,0.1354,0.1364,0.137,0.1374,0,0,0,0,0,0,0,0.0826,0.0694,0.0911,0.0912,0.0914,0.1098,0.1102,0.1105,0.1062,0.1056,0.105,0.1044,0.1278,0.1292,0.1307,0.152,0,0,0.1353,0.136,0,0,0,0,0,0,0,0,0.0689,0.0693,0.0911,0.0913,0.0915,0.1099,0.1102,0.1105,0.1061,0.1056,0.1051,0.1047,0.1282,0.1293,0.1306,0,0,0,0,0,0,0,0,0,0,0,0,0,0,0,0.0911,0.0913,0,0.1099,0.1101,0.1104,0.106,0.1056,0.1052,0.1048,0.1285,0.1295,0.1305,0,0,0,0,0,0,0,0,0,0,0,0,0,0,0,0,0,0,0,0,0,0,0,0,0,0,0,0,0,0,0,0,0,0,0,0,0,0,0,0,0,0,0,0,0,0,0,0,0,0,0,0,0,0,0,0,0,0,0,0,0,0,0,0,0,0,0,0,0]}]],[[{"header":{"parameterUnit":"kt","parameterCategory":2,"dx":1,"dy":1,"la1":30.253999710083008,"la2":30.299108505249023,"lo1":-89.0895004272461,"lo2":-89.04439544677734,"nx":28,"ny":28,"refTime":"2022-10-03T21:00:00:Z","depth":"2","parameterNumber":2,"parameterNumberName":"U-component_of_CURRENTS"},"data":[0.2573,0.2756,0.2811,0.3039,0.3206,0.3346,0.3403,0.3233,0.2952,0.2388,0.1956,0.1739,0.1551,0.1054,0.1034,0.0944,0.1343,0.0931,0.1756,0.1962,0.2039,0.2244,0.1814,0,0,0,0,0,0.2445,0.2565,0.2735,0.2945,0.3076,0.3199,0.3292,0.3254,0.3248,0.298,0.2929,0.2211,0.1894,0.1821,0.1501,0.1405,0.1499,0.1468,0.1574,0.166,0.1738,0.1405,0.0884,0.0882,0.088,0.0879,0,0,0.2235,0.2357,0.2521,0.2764,0.2924,0.3052,0.3161,0.3216,0.331,0.3281,0.3361,0.312,0.2871,0.2384,0.238,0.235,0.2551,0.2441,0.2479,0.2528,0.2227,0.2111,0.1925,0.193,0.1934,0.1938,0.1941,0,0.2076,0.2187,0.2305,0.2535,0.2719,0.289,0.3077,0.3151,0.3282,0.3387,0.3479,0.3511,0.3458,0.3153,0.3088,0.3086,0.322,0.3085,0.3835,0.2802,0.2713,0.2723,0.2746,0.268,0.269,0.2696,0.2701,0.2705,0.199,0.2039,0.2248,0.2367,0.2477,0.2686,0.2836,0.2979,0.3095,0.3301,0.3383,0.3578,0.3624,0.3751,0.3567,0.3629,0.3881,0.3318,0.302,0.3575,0.3586,0.3576,0.3566,0.2804,0.2792,0.2781,0.2773,0,0.198,0.2,0.2113,0.2253,0.2329,0.2482,0.2727,0.2862,0.3014,0.3226,0.3316,0.3451,0.3614,0.3755,0.3972,0.3825,0.391,0.3897,0.3557,0.3511,0.3628,0.3606,0.3712,0.3702,0.3694,0.3686,0.368,0,0.1973,0.2023,0.2135,0.2174,0.2323,0.238,0.2581,0.2698,0.288,0.3051,0.316,0.3291,0.3435,0.3603,0.3705,0.3737,0.3949,0.3638,0.3655,0.3351,0.3297,0.3833,0.3812,0.3982,0.3979,0.3976,0.3974,0,0.2047,0.2079,0.2113,0.2139,0.2239,0.2335,0.2408,0.2584,0.2716,0.2926,0.3052,0.3212,0.3365,0.3472,0.3636,0.3578,0.3868,0.3811,0.3633,0.3619,0.334,0.3287,0.397,0.397,0.3969,0.3968,0.3966,0,0.2094,0.2109,0.2139,0.222,0.2241,0.2292,0.2433,0.2502,0.269,0.2798,0.2943,0.3043,0.3225,0.3186,0.3429,0.3345,0.3475,0.3551,0.3567,0.3216,0.3198,0.3119,0.3177,0.3788,0.3784,0.3781,0.3778,0,0.2143,0.2153,0.2172,0.2198,0.2206,0.2272,0.2337,0.2437,0.2533,0.2676,0.2795,0.2951,0.2953,0.3081,0.314,0.3266,0.339,0.3238,0.3503,0.3513,0.3131,0.3235,0.2873,0.3153,0.3738,0.3742,0.3745,0,0.2176,0.2213,0.2215,0.224,0.225,0.2269,0.2332,0.239,0.2478,0.259,0.2698,0.284,0.2936,0.2993,0.3082,0.3161,0.3335,0.3192,0.3194,0.3299,0.3583,0.323,0.3226,0.3315,0.3317,0.3319,0.3713,0,0.2239,0.2239,0.2245,0.2227,0.2247,0.2255,0.2282,0.2369,0.2416,0.2459,0.2629,0.2732,0.2865,0.2926,0.2954,0.31,0.3159,0.3109,0.3064,0.3181,0.3353,0.3379,0.3063,0.3062,0.3061,0.306,0,0,0.2252,0.2222,0.2226,0.223,0.222,0.2224,0.2222,0.2263,0.2331,0.2403,0.2421,0.2624,0.2695,0.283,0.2901,0.2956,0.304,0.2969,0.3147,0.3156,0.3165,0.3331,0.3356,0.3059,0.3058,0.3058,0.3058,0,0.2231,0.224,0.2224,0.2231,0.2224,0.2196,0.2209,0.2218,0.2271,0.2363,0.2397,0.2521,0.2659,0.2733,0.2775,0.2935,0.2965,0.3004,0.3069,0.3138,0.3149,0.3158,0.3323,0.3347,0.3056,0.3056,0.3056,0,0.2225,0.2185,0.2172,0.2144,0.2139,0.2127,0.2108,0.2131,0.2147,0.2188,0.2301,0.2376,0.2456,0.2602,0.2678,0.2675,0.2923,0.2844,0.2852,0.2818,0.2884,0.2898,0.2911,0.2728,0.2727,0.2725,0,0,0.2208,0.2191,0.2134,0.2127,0.2129,0.2098,0.2095,0.21,0.2134,0.2173,0.2241,0.2341,0.2412,0.25,0.257,0.272,0.2751,0.2799,0.2814,0.2827,0.28,0.2868,0.2884,0.2719,0.2719,0.2719,0,0,0.2191,0.2111,0.2103,0.2086,0.2074,0.202,0.2045,0.203,0.2119,0.2156,0.2183,0.221,0.2347,0.2409,0.2324,0.2579,0.2524,0.2543,0.2526,0.2546,0.2561,0.2498,0.2294,0,0,0,0,0,0.2105,0.2108,0.2102,0.2088,0.2035,0.2015,0.2014,0.2009,0.2006,0.2053,0.2132,0.2124,0.2396,0.232,0.234,0.2418,0.264,0.2654,0.2667,0.2678,0.2699,0.2716,0,0,0,0,0,0,0.2099,0.2084,0.21,0.2036,0.2022,0.2014,0.1987,0.1989,0.2004,0.2011,0.2107,0.2125,0.2154,0.231,0.2328,0.2402,0.2288,0.2646,0.2658,0.2668,0.2685,0.2702,0.2717,0,0,0,0,0,0.2094,0.2081,0.2,0.2038,0.2026,0.2002,0.199,0.1991,0.2037,0.2061,0.208,0.2035,0.2152,0.2174,0.2321,0.2394,0.2275,0.2282,0.2653,0.2663,0.2671,0.2693,0,0,0,0,0,0,0.209,0.2112,0.1998,0.1993,0.2046,0.2008,0.2004,0.1994,0.2093,0.2102,0.1989,0.1992,0.215,0.2168,0.2185,0.2392,0.2265,0.2272,0.2276,0.2661,0.2668,0.2674,0,0,0,0,0,0,0.2117,0.2109,0.1996,0.2008,0.2005,0.2012,0.2009,0.2075,0.2099,0.2022,0.2022,0.199,0.2156,0.2163,0.2177,0.2278,0.2257,0.2264,0.2269,0.2271,0.2667,0.2672,0,0,0,0,0,0,0.2113,0.2107,0.201,0.2008,0.2007,0.197,0.2079,0.2058,0.2005,0.2023,0.2008,0.201,0.2152,0.2165,0.2171,0.2265,0.2274,0.2258,0.2262,0.2265,0.2267,0,0,0,0,0,0,0,0.2111,0.2157,0.2003,0.2009,0.2008,0.1945,0.1946,0.1947,0.2005,0.2007,0.2008,0.2009,0.222,0.2227,0.2234,0.2255,0,0,0.2257,0.226,0,0,0,0,0,0,0,0,0.2159,0.2157,0.2002,0.2,0.1998,0.1945,0.1946,0.1947,0.2006,0.2007,0.2008,0.2009,0.2222,0.2227,0.2233,0,0,0,0,0,0,0,0,0,0,0,0,0,0,0,0.2002,0.2,0,0.1945,0.1946,0.1947,0.2006,0.2007,0.2008,0.2008,0.2223,0.2228,0.2233,0,0,0,0,0,0,0,0,0,0,0,0,0,0,0,0,0,0,0,0,0,0,0,0,0,0,0,0,0,0,0,0,0,0,0,0,0,0,0,0,0,0,0,0,0,0,0,0,0,0,0,0,0,0,0,0,0,0,0,0,0,0,0,0,0,0,0,0,0]}],[{"header":{"parameterUnit":"kt","parameterCategory":2,"dx":1,"dy":1,"la1":30.253999710083008,"la2":30.299108505249023,"lo1":-89.0895004272461,"lo2":-89.04439544677734,"nx":28,"ny":28,"refTime":"2022-10-03T21:00:00:Z","depth":"2","parameterNumber":3,"parameterNumberName":"V-component_of_CURRENTS"},"data":[-0.0669,-0.0591,-0.0556,-0.0438,-0.0415,-0.0289,-0.0188,0.0066,0.0385,0.0966,0.1302,0.1746,0.1558,0.1291,0.1045,0.0826,0.0743,0.0797,0.1014,0.0762,0.0756,0.0542,0.0389,0,0,0,0,0,-0.0721,-0.069,-0.0642,-0.0583,-0.0508,-0.0525,-0.0367,-0.0212,0.0089,0.055,0.0969,0.1174,0.1354,0.1339,0.0984,0.0836,0.0691,0.0809,0.0582,0.0573,0.0565,0.0469,0.0653,0.0653,0.0653,0.0652,0,0,-0.0789,-0.0752,-0.071,-0.0694,-0.0656,-0.0563,-0.0485,-0.0334,-0.0122,0.0274,0.0476,0.0944,0.0944,0.1253,0.1195,0.098,0.0958,0.0786,0.0772,0.0759,0.0686,0.0732,0.092,0.0921,0.0922,0.0923,0.0924,0,-0.0796,-0.0811,-0.077,-0.0747,-0.073,-0.0669,-0.0607,-0.0533,-0.0383,-0.0204,0.0139,0.0424,0.0746,0.0904,0.1075,0.1074,0.0729,0.0814,0.0844,0.0326,0.0366,0.0398,0.0385,0.049,0.0489,0.0488,0.0488,0.0487,-0.0811,-0.0806,-0.0771,-0.0754,-0.0745,-0.0737,-0.0702,-0.0634,-0.0541,-0.0299,-0.0195,0.0091,0.0414,0.0749,0.0705,0.0861,0.0798,0.0784,0.0528,0.0543,0.0581,0.0565,0.055,0.0475,0.0477,0.0478,0.0479,0,-0.081,-0.0773,-0.0744,-0.0695,-0.0698,-0.0702,-0.0635,-0.0589,-0.0533,-0.0397,-0.0369,-0.018,0.0084,0.0208,0.0358,0.0325,0.046,0.0532,0.0469,0.0509,0.0524,0.0516,0.0684,0.069,0.0696,0.07,0.0704,0,-0.0757,-0.0746,-0.0689,-0.0677,-0.067,-0.0621,-0.0611,-0.0573,-0.0502,-0.0407,-0.0385,-0.0261,-0.0236,-0.0062,-0.0014,0.0194,0.015,0.019,0.0247,0.0125,0.0131,-0.0007,-0.0015,0.0029,0.0027,0.0025,0.0023,0,-0.0749,-0.0669,-0.0645,-0.0622,-0.0542,-0.0558,-0.0526,-0.0483,-0.0437,-0.0401,-0.033,-0.0321,-0.0246,-0.023,-0.0059,-0.0146,0.0104,-0.0001,0.0175,0.0192,0.0098,0.0105,0.0021,0.002,0.002,0.0019,0.0018,0,-0.0691,-0.0645,-0.0607,-0.0537,-0.0524,-0.051,-0.0472,-0.0435,-0.039,-0.0353,-0.0343,-0.0304,-0.0275,-0.0294,-0.0195,-0.0235,-0.0175,-0.0116,-0.0105,-0.0019,0.0044,0.0162,0.0227,0.0094,0.0092,0.0091,0.009,0,-0.0683,-0.0623,-0.0575,-0.0529,-0.0495,-0.0452,-0.0423,-0.039,-0.0342,-0.0297,-0.0296,-0.026,-0.0269,-0.0255,-0.0263,-0.0183,-0.0159,-0.0231,-0.0099,-0.0093,0.0023,0.0086,-0.003,0.0206,0.0076,0.0078,0.0079,0,-0.0677,-0.0582,-0.058,-0.0547,-0.0475,-0.0454,-0.042,-0.0376,-0.0364,-0.0302,-0.0279,-0.0256,-0.025,-0.0253,-0.0239,-0.024,-0.0166,-0.0225,-0.0225,-0.0096,-0.0069,0.0057,0.008,-0.0204,-0.0205,-0.0205,0.0067,0,-0.0588,-0.057,-0.0567,-0.0499,-0.0472,-0.0454,-0.0397,-0.0368,-0.0329,-0.0293,-0.0267,-0.0229,-0.0216,-0.0196,-0.0188,-0.0203,-0.0147,-0.0185,-0.0203,-0.0204,-0.0074,-0.0065,-0.018,-0.0181,-0.0181,-0.0182,0,0,-0.0587,-0.0562,-0.0529,-0.0497,-0.0473,-0.0428,-0.0403,-0.0376,-0.0309,-0.0301,-0.0268,-0.0218,-0.0198,-0.0204,-0.0195,-0.0177,-0.0136,-0.0206,-0.0202,-0.0204,-0.0206,-0.0083,-0.0074,-0.0183,-0.0183,-0.0183,-0.0183,0,-0.0544,-0.0545,-0.0534,-0.0499,-0.0454,-0.0418,-0.0412,-0.0354,-0.0338,-0.0285,-0.0265,-0.0242,-0.0195,-0.0193,-0.0191,-0.018,-0.0156,-0.0175,-0.0208,-0.0205,-0.0206,-0.0207,-0.0087,-0.0078,-0.0185,-0.0185,-0.0185,0,-0.0506,-0.0479,-0.0481,-0.0445,-0.0421,-0.0385,-0.0371,-0.0359,-0.0332,-0.0306,-0.0257,-0.0232,-0.0227,-0.0202,-0.0195,-0.0207,-0.0174,-0.0201,-0.0199,-0.0238,-0.0237,-0.0238,-0.0239,-0.0225,-0.0225,-0.0225,0,0,-0.047,-0.0466,-0.0417,-0.0434,-0.0416,-0.0378,-0.0365,-0.0347,-0.0315,-0.0306,-0.0266,-0.025,-0.0234,-0.0227,-0.0208,-0.0198,-0.0185,-0.0204,-0.0202,-0.02,-0.0236,-0.0236,-0.0237,-0.0225,-0.0225,-0.0225,0,0,-0.0456,-0.041,-0.0396,-0.0413,-0.0375,-0.0335,-0.0338,-0.0316,-0.0292,-0.0299,-0.0267,-0.026,-0.0231,-0.0239,-0.0234,-0.0223,-0.0235,-0.0234,-0.0207,-0.0205,-0.0203,-0.0247,-0.0236,0,0,0,0,0,-0.0387,-0.0412,-0.0399,-0.0397,-0.0375,-0.0341,-0.0336,-0.0312,-0.0311,-0.0306,-0.0277,-0.0281,-0.0231,-0.0226,-0.0223,-0.0221,-0.0221,-0.0222,-0.0222,-0.0185,-0.0182,-0.018,0,0,0,0,0,0,-0.0386,-0.0384,-0.0398,-0.0363,-0.0357,-0.0342,-0.033,-0.0324,-0.031,-0.0308,-0.0284,-0.028,-0.0263,-0.0228,-0.0225,-0.0224,-0.0237,-0.0221,-0.0222,-0.0222,-0.0184,-0.0182,-0.018,0,0,0,0,0,-0.0384,-0.0383,-0.036,-0.0362,-0.0357,-0.0324,-0.033,-0.0324,-0.0318,-0.0287,-0.0282,-0.0299,-0.0264,-0.0259,-0.0227,-0.0225,-0.0239,-0.0238,-0.0222,-0.0222,-0.0222,-0.0183,0,0,0,0,0,0,-0.0383,-0.0379,-0.0358,-0.0355,-0.0359,-0.0323,-0.032,-0.0325,-0.0298,-0.0292,-0.0301,-0.0299,-0.0264,-0.0261,-0.0258,-0.0226,-0.0241,-0.024,-0.0239,-0.0222,-0.0222,-0.0223,0,0,0,0,0,0,-0.0379,-0.0377,-0.0357,-0.0355,-0.0351,-0.0323,-0.032,-0.0309,-0.0298,-0.0314,-0.0311,-0.0301,-0.0267,-0.0262,-0.0259,-0.0243,-0.0243,-0.0241,-0.0241,-0.024,-0.0222,-0.0223,0,0,0,0,0,0,-0.0377,-0.0375,-0.0356,-0.0353,-0.0349,-0.031,-0.0313,-0.0295,-0.0292,-0.0316,-0.0291,-0.029,-0.0269,-0.0266,-0.026,-0.0245,-0.0244,-0.0243,-0.0242,-0.0241,-0.0241,0,0,0,0,0,0,0,-0.0375,-0.0401,-0.0376,-0.0351,-0.0348,-0.032,-0.032,-0.0319,-0.0292,-0.0291,-0.0291,-0.029,-0.0249,-0.0248,-0.0247,-0.0247,0,0,-0.0243,-0.0242,0,0,0,0,0,0,0,0,-0.0401,-0.0401,-0.0375,-0.0374,-0.0374,-0.032,-0.032,-0.0319,-0.0292,-0.0291,-0.0291,-0.0291,-0.0249,-0.0248,-0.0247,0,0,0,0,0,0,0,0,0,0,0,0,0,0,0,-0.0375,-0.0375,0,-0.032,-0.032,-0.0319,-0.0292,-0.0291,-0.0291,-0.0291,-0.0249,-0.0248,-0.0247,0,0,0,0,0,0,0,0,0,0,0,0,0,0,0,0,0,0,0,0,0,0,0,0,0,0,0,0,0,0,0,0,0,0,0,0,0,0,0,0,0,0,0,0,0,0,0,0,0,0,0,0,0,0,0,0,0,0,0,0,0,0,0,0,0,0,0,0,0]}]],[[{"header":{"parameterUnit":"kt","parameterCategory":2,"dx":1,"dy":1,"la1":30.253999710083008,"la2":30.299108505249023,"lo1":-89.0895004272461,"lo2":-89.04439544677734,"nx":28,"ny":28,"refTime":"2022-10-03T21:00:00:Z","depth":"4","parameterNumber":2,"parameterNumberName":"U-component_of_CURRENTS"},"data":[-0.0636,-0.0642,-0.0656,-0.0584,-0.0534,-0.0458,-0.0403,-0.0282,-0.0214,-0.0011,-0.0025,0.0154,0.012,0.021,0.0145,0.0145,0.0232,0.016,0.0159,0.0334,0.0346,0.0356,0.0263,0,0,0,0,0,-0.0653,-0.0654,-0.0645,-0.0581,-0.0525,-0.049,-0.0363,-0.0254,-0.0038,0.0038,0.0178,0.0164,0.019,0.0186,0.0145,0.0159,0.0217,0.0108,0.0254,0.0342,0.0354,0.0259,0,0,0,0,0,0,-0.068,-0.0676,-0.0665,-0.061,-0.0541,-0.047,-0.0367,-0.0212,-0.0041,0.0243,0.0226,0.0305,0.0394,0.0347,0.0265,0.0244,0.0279,0.0318,0.0331,0.0343,0.0263,0.0224,0.0176,0,0,0,0,0,-0.0675,-0.0677,-0.0661,-0.0607,-0.0534,-0.0426,-0.0262,-0.0159,0.0094,0.0261,0.0374,0.0437,0.0423,0.0403,0.0368,0.0318,0.0424,0.0378,0.0387,0.0411,0.0393,0.0434,0.0442,0.0403,0.0405,0.0406,0.0406,0,-0.0662,-0.0664,-0.0617,-0.0589,-0.0541,-0.0405,-0.0299,-0.0069,0.0067,0.0318,0.0371,0.0484,0.0539,0.0464,0.0447,0.0409,0.0382,0.041,0.0435,0.0414,0.0451,0.0455,0.0459,0.0417,0.0416,0.0415,0.0414,0,-0.0652,-0.062,-0.0606,-0.0528,-0.0493,-0.043,-0.0189,-0.0078,0.013,0.033,0.0415,0.0564,0.0562,0.0585,0.0584,0.0546,0.0497,0.0457,0.0537,0.058,0.0478,0.0478,0.0434,0.043,0.0427,0.0424,0.0422,0,-0.0593,-0.0592,-0.0524,-0.05,-0.0467,-0.0348,-0.0225,-0.013,0.0097,0.0237,0.0398,0.0494,0.0588,0.0599,0.0566,0.0505,0.0568,0.0479,0.051,0.0609,0.0609,0.0588,0.0586,0.06,0.0599,0.0598,0.0598,0,-0.0534,-0.0487,-0.0488,-0.0449,-0.0341,-0.032,-0.0236,-0.0079,0.0044,0.0249,0.0372,0.0452,0.057,0.056,0.0549,0.0577,0.0546,0.0617,0.0525,0.0522,0.0584,0.0583,0.0597,0.0597,0.0597,0.0597,0.0596,0,-0.0437,-0.04,-0.0396,-0.0305,-0.0283,-0.0258,-0.0144,-0.0068,0.0093,0.0201,0.032,0.0437,0.0481,0.0507,0.0516,0.0522,0.0537,0.0549,0.0555,0.0414,0.0476,0.0618,0.0656,0.0656,0.0656,0.0656,0.0656,0,-0.037,-0.0342,-0.0273,-0.0255,-0.0223,-0.0115,-0.0076,0.0004,0.0121,0.0229,0.0313,0.0424,0.0406,0.0504,0.049,0.0519,0.0528,0.0509,0.0588,0.0589,0.048,0.0481,0.0575,0.0654,0.0655,0.0655,0.0655,0,-0.0301,-0.0188,-0.0183,-0.0148,-0.0032,-0.0009,0.0034,0.0087,0.0147,0.0246,0.0316,0.0344,0.043,0.0441,0.0496,0.0502,0.0531,0.0528,0.0529,0.0551,0.0607,0.0497,0.0488,0.0579,0.0578,0.0578,0.0654,0,-0.0184,-0.0141,-0.0129,-0.0053,-0.0012,0.0023,0.0115,0.016,0.0237,0.0284,0.0366,0.0438,0.0486,0.0501,0.0509,0.0514,0.0543,0.0557,0.0548,0.0568,0.0605,0.0606,0.0583,0.0582,0.0582,0.0581,0,0,-0.0136,-0.0102,-0.0006,0.0024,0.0061,0.016,0.0163,0.0202,0.0282,0.0309,0.0374,0.0444,0.0467,0.0492,0.0501,0.0534,0.0562,0.0521,0.0568,0.0566,0.0565,0.06,0.0602,0.058,0.058,0.058,0.0579,0,-0.0102,-0.0013,-0.0004,0.005,0.0138,0.0158,0.0185,0.024,0.0276,0.0341,0.0366,0.0422,0.048,0.0485,0.0495,0.0532,0.0531,0.0553,0.054,0.0563,0.0563,0.0562,0.0597,0.0599,0.0578,0.0578,0.0578,0,-0.0046,0.0017,0.0038,0.0115,0.0144,0.0159,0.0199,0.0242,0.0258,0.0309,0.035,0.0391,0.0413,0.0458,0.0486,0.0489,0.0523,0.0517,0.0521,0.046,0.048,0.0481,0.0481,0.0472,0.0472,0.0471,0,0,-0.0018,0.0025,0.0099,0.0125,0.0155,0.0188,0.0201,0.0236,0.028,0.0298,0.0337,0.0379,0.0401,0.0444,0.0455,0.0502,0.049,0.0505,0.051,0.0514,0.0458,0.0478,0.0479,0.047,0.047,0.047,0,0,-0.0022,0.0072,0.0115,0.0149,0.0192,0.0203,0.021,0.0233,0.0271,0.0302,0.0328,0.0345,0.0404,0.0417,0.0404,0.045,0.0428,0.0431,0.0452,0.0458,0.0463,0.0388,0.0382,0,0,0,0,0,0.0057,0.0066,0.0105,0.0121,0.0168,0.019,0.0189,0.022,0.024,0.0244,0.0308,0.0299,0.0418,0.0407,0.0412,0.0419,0.0456,0.0459,0.0461,0.0495,0.0501,0.0507,0,0,0,0,0,0,0.0064,0.0083,0.0104,0.0124,0.0136,0.0188,0.0202,0.0206,0.0242,0.0248,0.0286,0.0298,0.031,0.0404,0.0408,0.0415,0.038,0.0457,0.0459,0.0461,0.0497,0.0502,0.0507,0,0,0,0,0,0.007,0.0085,0.017,0.0121,0.0131,0.0176,0.0204,0.0208,0.0224,0.0266,0.0277,0.0261,0.0307,0.0318,0.0406,0.0413,0.0377,0.0378,0.0459,0.046,0.0462,0.05,0,0,0,0,0,0,0.0074,0.0042,0.0171,0.0173,0.0154,0.0174,0.0182,0.0209,0.024,0.0252,0.0241,0.0245,0.0304,0.0313,0.032,0.0413,0.0374,0.0376,0.0377,0.046,0.0461,0.0462,0,0,0,0,0,0,0.0036,0.0044,0.0171,0.0211,0.0217,0.0171,0.018,0.0191,0.0243,0.021,0.0216,0.0243,0.0338,0.0309,0.0315,0.0325,0.0372,0.0373,0.0375,0.0375,0.0461,0.0462,0,0,0,0,0,0,0.0039,0.0045,0.0209,0.0213,0.0218,0.023,0.0181,0.0245,0.0228,0.0208,0.0236,0.024,0.0337,0.0341,0.0311,0.0317,0.0323,0.0372,0.0373,0.0374,0.0374,0,0,0,0,0,0,0,0.0041,0.0007,0.0181,0.0215,0.022,0.0198,0.0196,0.0195,0.0229,0.0232,0.0235,0.0238,0.0362,0.0364,0.0366,0.0311,0,0,0.0372,0.0372,0,0,0,0,0,0,0,0,0.0003,0.0006,0.0181,0.0183,0.0185,0.0198,0.0197,0.0195,0.0229,0.0232,0.0234,0.0237,0.0362,0.0364,0.0365,0,0,0,0,0,0,0,0,0,0,0,0,0,0,0,0.0181,0.0183,0,0.0198,0.0197,0.0195,0.0229,0.0232,0.0234,0.0236,0.0363,0.0364,0.0365,0,0,0,0,0,0,0,0,0,0,0,0,0,0,0,0,0,0,0,0,0,0,0,0,0,0,0,0,0,0,0,0,0,0,0,0,0,0,0,0,0,0,0,0,0,0,0,0,0,0,0,0,0,0,0,0,0,0,0,0,0,0,0,0,0,0,0,0,0]}],[{"header":{"parameterUnit":"kt","parameterCategory":2,"dx":1,"dy":1,"la1":30.253999710083008,"la2":30.299108505249023,"lo1":-89.0895004272461,"lo2":-89.04439544677734,"nx":28,"ny":28,"refTime":"2022-10-03T21:00:00:Z","depth":"4","parameterNumber":3,"parameterNumberName":"V-component_of_CURRENTS"},"data":[0.0445,0.0521,0.0571,0.0699,0.0798,0.0959,0.1017,0.1,0.0903,0.086,0.0699,0.075,0.0478,0.0537,0.0247,0.0217,0.0241,-0.0,0.0,0.0027,0.0028,0.0029,0.0044,0,0,0,0,0,0.0459,0.0506,0.0592,0.0707,0.0845,0.0985,0.1047,0.107,0.106,0.0932,0.091,0.0697,0.0472,0.0315,0.0227,0.0178,0.0077,0.008,0.0109,0.0028,0.0029,0.0043,0,0,0,0,0,0,0.046,0.0492,0.0577,0.0718,0.0868,0.0961,0.1028,0.1025,0.106,0.0949,0.0858,0.063,0.0532,0.033,0.0193,0.0109,0.0096,0.0126,0.0122,0.0122,0.0147,0.0182,0.0176,0,0,0,0,0,0.0475,0.051,0.0563,0.0717,0.084,0.0971,0.1083,0.1077,0.1085,0.1115,0.0899,0.0753,0.0543,0.0315,0.0225,0.0091,0.0064,0.0042,0.0043,0.0047,0.0065,0.0009,0.0007,0.0033,0.0033,0.0033,0.0033,0,0.0448,0.0504,0.0623,0.069,0.0749,0.0885,0.0983,0.1051,0.1056,0.0969,0.0919,0.077,0.0622,0.0365,0.0214,0.0056,0.0043,0.0045,0.005,0.0067,0.0011,0.0008,0.0005,0.0034,0.0034,0.0034,0.0034,0,0.0415,0.0471,0.0566,0.0656,0.0713,0.0786,0.0929,0.0972,0.0964,0.0949,0.0936,0.0751,0.0563,0.0434,0.0257,0.0203,0.008,0.006,0.0092,0.0033,0.0008,0.0005,0.0035,0.0035,0.0034,0.0034,0.0034,0,0.0363,0.0437,0.0503,0.0553,0.067,0.0699,0.0807,0.0809,0.082,0.0823,0.0721,0.0642,0.0501,0.0392,0.0274,0.0152,0.0149,0.009,0.0037,0.004,0.0036,0.0001,-0.0007,0.0076,0.0077,0.0077,0.0077,0,0.026,0.0365,0.0462,0.049,0.0562,0.0624,0.0673,0.0682,0.0713,0.0656,0.062,0.0545,0.0485,0.0396,0.0243,0.0224,0.0122,0.0068,0.0033,0.003,-0.0001,-0.001,0.0077,0.0077,0.0077,0.0077,0.0077,0,0.0194,0.0244,0.0366,0.0439,0.0464,0.0524,0.0572,0.0608,0.0585,0.0539,0.0499,0.041,0.0389,0.0307,0.022,0.0203,0.0145,0.0077,0.0072,0.0039,-0.0067,-0.0062,-0.0024,-0.0025,-0.0025,-0.0026,-0.0026,0,0.0086,0.019,0.0206,0.0305,0.0366,0.0349,0.0406,0.0415,0.0378,0.036,0.0303,0.0281,0.0223,0.0184,0.0166,0.0059,0.0076,0.0074,-0.0061,-0.0063,-0.004,-0.0005,-0.0009,-0.0032,-0.0032,-0.0031,-0.0031,0,-0.0001,0.0059,0.0069,0.0119,0.0151,0.0158,0.0213,0.0253,0.0274,0.0218,0.0239,0.0212,0.0138,0.0125,0.0061,0.0048,0.0061,-0.0037,-0.0041,-0.0007,-0.0001,-0.0013,-0.0011,-0.0015,-0.0014,-0.0013,-0.0035,0,-0.0012,0.0011,0.0017,0.0075,0.008,0.0099,0.0103,0.0095,0.0069,0.0066,0.0046,-0.0019,-0.0041,-0.0073,-0.0093,-0.007,-0.0118,-0.0174,-0.0173,-0.0154,-0.0175,-0.0171,-0.0246,-0.0248,-0.025,-0.0251,0,0,-0.0073,-0.004,-0.0087,-0.0043,-0.0023,-0.0076,-0.0015,-0.0021,-0.0045,-0.0035,-0.0083,-0.0136,-0.0171,-0.0137,-0.0129,-0.019,-0.0226,-0.0169,-0.0186,-0.0179,-0.0172,-0.0188,-0.0183,-0.0254,-0.0254,-0.0255,-0.0255,0,-0.0059,-0.0107,-0.0084,-0.0082,-0.0088,-0.0081,-0.0087,-0.0094,-0.0085,-0.0101,-0.0112,-0.0143,-0.021,-0.0191,-0.0197,-0.0213,-0.0249,-0.0264,-0.0172,-0.02,-0.019,-0.0182,-0.0195,-0.0189,-0.0259,-0.0259,-0.0259,0,-0.0059,-0.0069,-0.0082,-0.01,-0.0103,-0.0067,-0.0098,-0.0112,-0.0073,-0.0131,-0.0108,-0.0162,-0.0197,-0.0212,-0.0233,-0.0242,-0.0266,-0.0282,-0.0277,-0.023,-0.0258,-0.0249,-0.024,-0.034,-0.034,-0.0339,0,0,-0.0038,-0.0055,-0.0065,-0.0097,-0.0097,-0.0101,-0.0109,-0.0102,-0.0114,-0.0115,-0.0136,-0.0167,-0.0185,-0.0202,-0.0236,-0.0276,-0.0289,-0.0284,-0.0281,-0.0277,-0.0229,-0.0256,-0.0248,-0.0337,-0.0337,-0.0337,0,0,-0.0027,-0.0038,-0.0042,-0.0074,-0.0084,-0.0085,-0.0093,-0.0093,-0.0103,-0.0101,-0.0116,-0.0124,-0.0154,-0.0197,-0.0171,-0.0223,-0.025,-0.0256,-0.0159,-0.0156,-0.0152,-0.0074,-0.0163,0,0,0,0,0,-0.0016,-0.004,-0.0045,-0.0053,-0.0078,-0.0092,-0.0093,-0.0079,-0.0073,-0.0074,-0.0087,-0.0095,-0.0177,-0.0153,-0.0168,-0.0154,-0.0316,-0.032,-0.0323,-0.0211,-0.0206,-0.0203,0,0,0,0,0,0,-0.0019,-0.0028,-0.0044,-0.005,-0.0057,-0.0091,-0.0064,-0.006,-0.0071,-0.0066,-0.009,-0.0095,-0.0097,-0.0148,-0.0161,-0.0146,-0.0159,-0.0317,-0.0321,-0.0324,-0.0209,-0.0206,-0.0203,0,0,0,0,0,-0.0022,-0.0029,-0.0073,-0.0049,-0.0055,-0.005,-0.0061,-0.0058,-0.0059,-0.0084,-0.0086,-0.005,-0.0098,-0.0109,-0.0156,-0.0139,-0.0151,-0.0155,-0.032,-0.0322,-0.0324,-0.0208,0,0,0,0,0,0,-0.0024,-0.0014,-0.0074,-0.0075,-0.0036,-0.0046,-0.0046,-0.0057,-0.0075,-0.0078,-0.0044,-0.004,-0.0099,-0.0108,-0.0116,-0.0134,-0.0144,-0.0148,-0.0151,-0.0321,-0.0323,-0.0325,0,0,0,0,0,0,-0.001,-0.0014,-0.0074,-0.0058,-0.0057,-0.0042,-0.0043,-0.0097,-0.0078,-0.0034,-0.0031,-0.0043,-0.0109,-0.0107,-0.0113,-0.0196,-0.0139,-0.0143,-0.0146,-0.0148,-0.0323,-0.0325,0,0,0,0,0,0,-0.0012,-0.0015,-0.0057,-0.0056,-0.0055,-0.0062,-0.0091,-0.0127,-0.0033,-0.0034,-0.0029,-0.0027,-0.011,-0.0115,-0.0111,-0.0191,-0.0195,-0.0139,-0.0142,-0.0144,-0.0145,0,0,0,0,0,0,0,-0.0013,0.0007,-0.0075,-0.0055,-0.0053,-0.0089,-0.0089,-0.0088,-0.0032,-0.0031,-0.0029,-0.0027,-0.0113,-0.0118,-0.0123,-0.0187,0,0,-0.0138,-0.014,0,0,0,0,0,0,0,0,0.0008,0.0007,-0.0075,-0.0076,-0.0076,-0.0089,-0.0089,-0.0088,-0.0032,-0.0031,-0.0029,-0.0028,-0.0114,-0.0118,-0.0122,0,0,0,0,0,0,0,0,0,0,0,0,0,0,0,-0.0075,-0.0076,0,-0.0089,-0.0089,-0.0088,-0.0032,-0.0031,-0.003,-0.0029,-0.0116,-0.0119,-0.0122,0,0,0,0,0,0,0,0,0,0,0,0,0,0,0,0,0,0,0,0,0,0,0,0,0,0,0,0,0,0,0,0,0,0,0,0,0,0,0,0,0,0,0,0,0,0,0,0,0,0,0,0,0,0,0,0,0,0,0,0,0,0,0,0,0,0,0,0,0]}]]]